{"data":{"norad_id":55362,"intl_designator":"2023-013AH","name":"STARLINK-5574","alt_names":[],"object_type":"PAYLOAD","status":"ACTIVE","operator":null,"country":"US","launch_date":"2023-01-26","launch_site_code":"AFETR","launch_vehicle":null,"mission":null,"orbit_class":"UNKNOWN","rcs_meters":null,"size_class":null,"mass_kg":null,"dimensions":null,"purposes":["comms"],"wikipedia_slug":null,"has_3d_model":false,"image_url":null,"decayed_at":null,"tle_current":{"epoch":"2026-09-20T23:40:47.709120Z","epoch_age_seconds":54608,"freshness":"FRESH","line1":"1 55362U 23013AH  26263.98666330 -.00000282  00000+0 -71473-6 0  9991","line2":"2 55362  43.0041 265.5839 0000926 312.3765  47.7008 15.27575874201715","mean_motion":15.27575874,"eccentricity":9.26e-5,"inclination_deg":43.0041,"raan_deg":265.5839,"arg_perigee_deg":312.3765,"mean_anomaly_deg":47.7008,"bstar":-7.1473e-7,"rev_number":20171,"period_min":94.267003329224,"perigee_km":482.42610381924,"apogee_km":483.69679777233,"semimajor_km":6861.1984507958,"source":"CELESTRAK","updated_at":"2026-09-21T09:00:33.207452Z"}}}